Location: ??????
(42.0089°N, 44.3281°E)
Time: 15:43:22
(UTC+00:00)

Delta 2 Rocket - Pass Details

Date: 24 October 2021
Orbit: 415 x 797 km, 35.6° (Epoch: 06 December)

Event Time Altitude Azimuth Distance (km) Brightness Sun altitude
Rises 14:32:13 0° 244° (WSW) 2,558 8.7 -5.3°
Reaches altitude 10° 14:34:43 10° 232° (SW) 1,618 6.9 -5.8°
Maximum altitude 14:37:49 26° 174° (S) 901 4.5 -6.3°
Drops below altitude 10° 14:40:44 10° 115° (ESE) 1,514 5.1 -6.9°
Enters shadow 14:41:31 - 109° (ESE) 1,795 5.4 -7.0°
